sat.trackr.live / text

‹ back to catalog

STARLINK-34509

NORAD 64484 · 2025-133N

PAYLOAD ACTIVE UNKNOWN

§ Identity

Operator
Country
US
Launch date
2025-06-23
Launch site
AFETR
Launch vehicle
Mass (kg)
RCS (m²)

Purposes: comms

External: N2YO · Heavens-Above · Gunter

§ Orbital elements

Epoch: 2026-05-25T02:26:40.812000Z

Period
94.11 min
Inclination
53.1566°
Eccentricity
0.0001170
Mean motion
15.30204144 rev/d
Perigee alt
474.4 km
Apogee alt
476.0 km
Semi-major
6,853.3 km
B*
5.4301e-4
RAAN
122.1394°
Arg perigee
100.4179°
Mean anomaly
259.6953°
Rev number
5,288

§ Raw data

STARLINK-345091 64484U 25133N   26145.10186125  .00015760  00000+0  54301-3 0  99962 64484  53.1566 122.1394 0001170 100.4179 259.6953 15.30204144 52883

JSON: /api/v1/satellites/64484 · /tle

For live sub-satellite position, see the globe view (requires WebGL).

§ Visibility from observer

Set your observer location to see the next 7 days of passes ≥ 10°. The values pass through the URL so the page stays shareable.

No JS? Fill the form by hand. The geolocation button needs JavaScript.